Change the Weather History Date:

Sunday, October 10, 2010

  Actual Average Record
Temperature  
Mean Temperature 54 °F 49 °F  
Max Temperature 74 °F 67 °F 87 °F (1988)
Min Temperature 33 °F 32 °F 22 °F (2006)
Degree Days  
Heating Degree Days 11 16  
Month to date heating degree days 107 142  
Since 1 July heating degree days 514 541  
Cooling Degree Days 0 0  
Month to date cooling degree days 0 0  
Year to date cooling degree days 161 222  
Growing Degree Days 6 (Base 50)    
Moisture  
Dew Point 47 °F    
Average Humidity 62    
Maximum Humidity 86    
Minimum Humidity 38    
Precipitation  
Precipitation T in 0.02 in 0.31 in (1962)
Month to date precipitation 0.20 0.16  
Year to date precipitation 7.34 6.30  
Sea Level Pressure  
Sea Level Pressure 30.19 in    
Wind  
Wind Speed 7 mph (SSW)    
Max Wind Speed 18 mph    
Max Gust Speed 24 mph    
Visibility 10 miles    
Events Rain    
T = Trace of Precipitation, MM = Missing Value Source: NWS Daily Summary

Daily Weather History Graph

Daily Weather History Graph

Search for Another Location

Airport or City:

Trip Planner

Search our weather history database for the weather conditions in past years. The results will help you decide how hot, cold, wet, or windy it might be!

Date:

Astronomy

Oct. 10, 2010 Rise Set
Actual Time 7:13 AM PDT 6:29 PM PDT
Civil Twilight 6:44 AM PDT 6:58 PM PDT
Nautical Twilight 6:10 AM PDT 7:31 PM PDT
Astronomical Twilight 5:37 AM PDT 8:05 PM PDT
Moon 11:01 AM PDT (10/10) 8:05 PM PDT (10/10)
Length of Visible Light 12h 13m
Length of Day
11h 15m
Waxing Crescent, 12% of the Moon is Illuminated
Oct 10
Waxing Crescent
Oct 14
First Quarter
Oct 22
Full
Oct 30
Last Quarter
Nov 5
New

Hourly Weather History & Observations

Time (PDT) Temp. Windchill Dew Point Humidity Pressure Visibility Wind Dir Wind Speed Gust Speed Precip Events Conditions
12:56 AM 55.9 °F - 52.0 °F 87% 30.26 in 10.0 mi South 5.8 mph - N/A   Clear
1:56 AM 55.9 °F - 51.1 °F 84% 30.25 in 10.0 mi SSE 6.9 mph - N/A   Clear
2:56 AM 55.9 °F - 50.0 °F 80% 30.24 in 10.0 mi Calm Calm - N/A   Partly Cloudy
3:56 AM 55.9 °F - 50.0 °F 80% 30.21 in 10.0 mi South 8.1 mph - N/A   Mostly Cloudy
4:56 AM 57.9 °F - 51.1 °F 78% 30.20 in 10.0 mi Variable 4.6 mph - N/A   Overcast
5:56 AM 59.0 °F - 50.0 °F 72% 30.19 in 10.0 mi South 11.5 mph - N/A   Overcast
6:56 AM 55.0 °F - 48.9 °F 80% 30.20 in 10.0 mi SSE 4.6 mph - N/A   Overcast
7:56 AM 57.0 °F - 50.0 °F 77% 30.19 in 10.0 mi East 4.6 mph - N/A   Mostly Cloudy
8:56 AM 61.0 °F - 51.1 °F 70% 30.18 in 10.0 mi South 5.8 mph - N/A   Clear
9:56 AM 66.0 °F - 51.1 °F 59% 30.17 in 10.0 mi SW 4.6 mph - N/A   Clear
10:56 AM 71.1 °F - 48.9 °F 45% 30.14 in 10.0 mi SSW 8.1 mph - N/A   Clear
11:56 AM 72.0 °F - 46.0 °F 40% 30.12 in 10.0 mi Variable 4.6 mph - N/A   Clear
12:56 PM 73.0 °F - 46.9 °F 39% 30.11 in 10.0 mi NW 11.5 mph - N/A   Scattered Clouds
1:56 PM 66.9 °F - 51.1 °F 57% 30.12 in 10.0 mi WNW 15.0 mph - N/A   Mostly Cloudy
2:56 PM 64.0 °F - 50.0 °F 60% 30.13 in 10.0 mi NW 15.0 mph - N/A   Overcast
3:56 PM 60.1 °F - 50.0 °F 69% 30.15 in 10.0 mi North 13.8 mph - 0.00 in   Mostly Cloudy
4:56 PM 57.9 °F - 48.0 °F 70% 30.15 in 10.0 mi North 9.2 mph - N/A   Overcast
5:56 PM 54.0 °F - 48.0 °F 80% 30.16 in 10.0 mi North 8.1 mph - 0.00 in Rain Light Rain
6:56 PM 51.1 °F - 45.0 °F 80% 30.19 in 10.0 mi NE 5.8 mph - 0.00 in   Mostly Cloudy
7:56 PM 48.0 °F - 39.9 °F 74% 30.21 in 10.0 mi NE 6.9 mph - N/A   Clear
8:56 PM 45.0 °F 42.6 °F 37.0 °F 74% 30.23 in 10.0 mi NNE 4.6 mph - N/A   Clear
9:56 PM 39.0 °F - 35.1 °F 86% 30.26 in 10.0 mi Calm Calm - N/A   Scattered Clouds
10:56 PM 43.0 °F - 37.0 °F 80% 30.26 in 10.0 mi Calm Calm - N/A   Overcast
11:56 PM 39.0 °F 36.8 °F 35.1 °F 86% 30.28 in 10.0 mi WSW 3.5 mph - N/A   Clear